#timestamp,LO_Frequency 
1470406495.6,25744484.7
1470406515.6,9999954.8
1470406535.5,286047039.7
1470406555.4,286047007.3
1470406575.4,286047005.7
1470406595.3,286046992.5
1470406615.2,286046994.1
1470406635.1,286046990.9
1470406655.1,286047000.2
1470406656.0,286047000.2
1470406675.9,286047006.6
1470406695.8,286047002.0
1470406715.8,286046995.7
1470406735.7,286047005.1
1470406755.6,286046995.9
1470406775.5,286047003.5
1470406795.5,286047005.7
1470406815.4,286047005.9
1470406835.3,286046999.8
1470406855.2,286047003.2
1470406875.2,286047000.2
1470406895.1,286046993.9
1470406896.0,286046993.9
1470406915.0,286046996.9
1470406915.9,286046996.9
1470406935.9,286047002.7
1470406955.8,286046995.1
1470406975.7,286047004.8
1470406995.6,286047003.7
1470407015.6,286046991.9
1470407035.5,286046996.3
1470407055.4,286046997.5
1470407075.3,286047002.2
1470407095.3,286047006.6
1470407115.2,286047005.3
1470407135.1,286046998.3
1470407155.0,286047004.6
1470407155.9,286047004.6
1470407175.9,286047005.5
1470407195.8,286046992.6
1470407215.7,286046995.2
1470407235.6,286046998.4
1470407255.6,286047009.4
1470407275.5,286047006.5
1470407295.4,286046996.4
1470407315.3,286047000.9
1470407335.3,286047002.5
1470407355.2,286047000.5
1470407375.1,286046994.4
1470407395.0,286047003.2
1470407396.0,286047003.2
1470407415.9,286047003.1
1470407435.8,286046996.6
1470407455.7,286046999.2
1470407475.7,286047002.4
1470407495.6,286047000.2
1470407515.5,286047003.7
1470407535.4,286046998.0
1470407555.4,286046996.3
1470407575.3,286046990.6
1470407595.2,286047007.5
1470407615.1,286047005.9
1470407635.1,286047007.1
1470407636.0,286047007.1
1470407655.9,286046990.2
1470407675.8,286047006.5
1470407695.8,286047005.0
1470407715.7,286046998.7
1470407735.6,286046999.2
1470407755.5,286047001.1
1470407775.5,286046988.6
1470407795.4,286046997.1
1470407815.3,286047003.9
1470407835.2,286046999.6
1470407855.2,286047001.6
1470407875.1,286047005.8
1470407876.0,286047005.8
1470407895.0,286046987.3
1470407895.9,286046987.3
1470407915.9,286047009.5
1470407935.8,286047001.6
1470407955.7,286047002.5
1470407975.6,286047001.6
1470407995.6,286047005.3
1470408015.5,286047001.1
1470408035.4,286047002.2
1470408055.3,286046998.4
1470408075.3,286047001.0
1470408095.2,286046998.0
1470408115.1,286046997.9
1470408135.0,286046995.7
1470408136.0,286046995.7
1470408155.9,286047002.2
1470408175.8,286046994.3
1470408195.7,286047002.2
1470408215.7,286046996.5
1470408235.6,286047007.3
1470408255.5,286046993.8
1470408275.4,286047005.9
1470408295.4,286046993.5
1470408315.3,286046999.7
1470408335.2,286047004.8
1470408355.1,286047006.0
1470408375.1,286046991.6
1470408376.0,286046991.6
1470408395.9,286047010.4
1470408415.8,286047004.7
1470408435.7,286046997.4
1470408455.7,286047003.1
1470408475.6,286046993.8
1470408495.5,286047001.7
1470408515.4,286047002.6
1470408535.4,286046993.3
1470408555.3,286047005.2
1470408575.2,286046998.5
1470408595.1,286046994.9
1470408615.1,286046994.6
1470408616.0,286046994.6
1470408635.0,286047011.2
1470408635.9,286047011.2
1470408655.8,286046990.7
1470408675.8,286046997.0
1470408695.7,286046995.6
1470408715.6,286047002.4
1470408735.5,286047002.0
1470408755.5,286046997.2
1470408775.4,286047003.7
1470408795.3,286047002.0
1470408815.2,286046997.5
1470408835.2,286046993.4
1470408855.1,286046999.3
1470408875.0,286047003.4
1470408875.9,286047003.4
1470408895.9,286046990.4
1470408915.8,286046999.4
1470408935.7,286046999.6
1470408955.6,286046998.7
1470408975.6,286047005.6
1470408995.5,286046996.4
1470409015.4,286046998.7
1470409035.3,286047003.0
1470409055.3,286046998.4
1470409075.2,286046998.8
1470409095.1,286047009.0
1470409115.0,286047005.5
1470409116.0,286047005.5
1470409135.9,286046995.2
1470409155.8,286046995.5
1470409175.7,286047003.5
1470409195.7,286047005.0
